This is the latest recevied weather packets stored in our database for station/object KB1JDX. If no packets are shown the sender has not sent any weather packets the latest 10 day(s).
| Time | Temp. | Humidity | Pressure | Rain* | Wind** | Luminosity | Snow |
|---|---|---|---|---|---|---|---|
| 1778121636 | 14.44° C | 100% | 1006.8 hPa | 0 mm | 0 m/s | - | - |
| 1778120436 | 13.89° C | 100% | 1006.8 hPa | 0 mm | 0 m/s | - | - |
| 1778120367 | 13.89° C | 100% | 1006.8 hPa | 0 mm | 0 m/s | - | - |
| 1778119236 | 13.89° C | 100% | 1006.9 hPa | 0 mm | 3.13 m/s, 238° | - | - |
| 1778118036 | 13.89° C | 100% | 1006.8 hPa | 0 mm | 0 m/s | - | - |
| 1778116836 | 13.89° C | 100% | 1006.7 hPa | 0 mm | 0 m/s | - | - |
| 1778116767 | 13.89° C | 100% | 1006.8 hPa | 0 mm | 0 m/s | - | - |
| 1778115636 | 13.89° C | 100% | 1007 hPa | 0 mm | 0 m/s | - | - |
| 1778114436 | 13.89° C | 100% | 1007.2 hPa | 0 mm | 0 m/s | - | - |
| 1778113236 | 13.89° C | 100% | 1007 hPa | 0 mm | 0 m/s | - | - |
| 1778113167 | 13.89° C | 100% | 1007 hPa | 0 mm | 0 m/s | - | - |
| 1778112036 | 13.89° C | 100% | 1006.8 hPa | 0.51 mm | 0 m/s | - | - |
| 1778110836 | 13.89° C | 100% | 1006.9 hPa | 0.51 mm | 0 m/s | - | - |
| 1778109636 | 13.89° C | 100% | 1006.6 hPa | 0.51 mm | 0 m/s | - | - |
| 1778109567 | 13.89° C | 100% | 1006.6 hPa | 0.51 mm | 0 m/s | - | - |
| 1778108436 | 14.44° C | 100% | 1006.6 hPa | 0.25 mm | 0 m/s | - | - |
| 1778106036 | 14.44° C | 100% | 1006.5 hPa | 0.25 mm | 0 m/s | - | - |
| 1778105967 | 14.44° C | 100% | 1006.5 hPa | 0.25 mm | 1.79 m/s, 213° | - | - |
| 1778104836 | 14.44° C | 100% | 1006.4 hPa | 0 mm | 2.24 m/s, 244° | - | - |
| 1778103636 | 14.44° C | 100% | 1006.8 hPa | 0 mm | 0 m/s | - | - |
| 1778102436 | 14.44° C | 100% | 1006.9 hPa | 0 mm | 0 m/s | - | - |
| 1778102367 | 14.44° C | 100% | 1006.9 hPa | 0 mm | 0 m/s | - | - |
| 1778101235 | 15° C | 100% | 1007 hPa | 1.27 mm | 0 m/s | - | - |
| 1778098767 | 15° C | 100% | 1007.5 hPa | 1.27 mm | 3.58 m/s, 186° | - | - |
| 1778097635 | 15° C | 100% | 1007.7 hPa | 0.76 mm | 0 m/s | - | - |
* Rain latest hour (hover to see other rain measurements)
** Current wind speed in m/s (hover to see current wind gust speed)